TimeCST,TemperatureF,Dew PointF,Humidity,Sea Level PressureIn,VisibilityMPH,Wind Direction,Wind SpeedMPH,Gust SpeedMPH,PrecipitationIn,Events,Conditions,WindDirDegrees,DateUTC
12:14 AM,41.0,28.4,61,30.32,10.0,SSE,11.5,-,N/A,,Clear,160,2012-11-17 06:14:00
12:33 AM,41.0,28.4,61,30.32,10.0,SSE,12.7,-,N/A,,Clear,160,2012-11-17 06:33:00
12:54 AM,41.0,28.4,61,30.31,10.0,SSE,13.8,-,N/A,,Clear,160,2012-11-17 06:54:00
1:14 AM,41.0,28.4,61,30.31,10.0,SSE,13.8,19.6,N/A,,Clear,160,2012-11-17 07:14:00
1:34 AM,41.0,28.4,61,30.32,10.0,SSE,15.0,19.6,N/A,,Clear,160,2012-11-17 07:34:00
1:53 AM,41.0,28.4,61,30.32,10.0,SSE,15.0,20.7,N/A,,Clear,160,2012-11-17 07:53:00
2:13 AM,41.0,28.4,61,30.32,10.0,SSE,15.0,-,N/A,,Clear,160,2012-11-17 08:13:00
2:33 AM,41.0,28.4,61,30.32,10.0,SSE,16.1,21.9,N/A,,Clear,160,2012-11-17 08:33:00
2:53 AM,41.0,28.4,61,30.31,10.0,SSE,17.3,-,N/A,,Clear,160,2012-11-17 08:53:00
3:13 AM,41.0,28.4,61,30.31,10.0,SSE,17.3,21.9,N/A,,Clear,160,2012-11-17 09:13:00
3:33 AM,41.0,28.4,61,30.30,10.0,SSE,16.1,24.2,N/A,,Clear,160,2012-11-17 09:33:00
3:55 AM,41.0,28.4,61,30.30,10.0,SSE,16.1,21.9,N/A,,Clear,160,2012-11-17 09:55:00
4:13 AM,41.0,28.4,61,30.29,10.0,SSE,15.0,19.6,N/A,,Clear,160,2012-11-17 10:13:00
4:33 AM,41.0,28.4,61,30.29,10.0,SSE,15.0,-,N/A,,Clear,160,2012-11-17 10:33:00
4:53 AM,41.0,28.4,61,30.29,10.0,SSE,16.1,-,N/A,,Clear,160,2012-11-17 10:53:00
5:14 AM,41.0,28.4,61,30.29,10.0,SSE,15.0,-,N/A,,Clear,160,2012-11-17 11:14:00
5:34 AM,41.0,28.4,61,30.29,10.0,SSE,18.4,-,N/A,,Clear,160,2012-11-17 11:34:00
5:54 AM,41.0,28.4,61,30.28,10.0,SSE,17.3,-,N/A,,Clear,160,2012-11-17 11:54:00
6:13 AM,41.0,28.4,61,30.28,10.0,SSE,17.3,23.0,N/A,,Clear,160,2012-11-17 12:13:00
6:33 AM,41.0,28.4,61,30.28,10.0,SSE,18.4,-,N/A,,Clear,160,2012-11-17 12:33:00
6:54 AM,39.2,28.4,65,30.28,10.0,SSE,17.3,23.0,N/A,,Clear,160,2012-11-17 12:54:00
7:13 AM,39.2,28.4,65,30.28,7.0,SSE,17.3,23.0,N/A,,Clear,160,2012-11-17 13:13:00
7:34 AM,39.2,28.4,65,30.29,7.0,SSE,18.4,-,N/A,,Clear,160,2012-11-17 13:34:00
7:54 AM,41.0,30.2,65,30.29,7.0,SSE,18.4,24.2,N/A,,Clear,160,2012-11-17 13:54:00
8:13 AM,42.8,30.2,61,30.29,7.0,SSE,18.4,-,N/A,,Clear,160,2012-11-17 14:13:00
8:34 AM,42.8,30.2,61,30.29,7.0,SSE,15.0,25.3,N/A,,Clear,160,2012-11-17 14:34:00
8:54 AM,44.6,30.2,57,30.29,10.0,SSE,16.1,23.0,N/A,,Clear,160,2012-11-17 14:54:00
9:14 AM,44.6,30.2,57,30.29,10.0,SSE,16.1,24.2,N/A,,Clear,160,2012-11-17 15:14:00
9:34 AM,46.4,30.2,53,30.29,10.0,South,17.3,21.9,N/A,,Clear,170,2012-11-17 15:34:00
9:54 AM,48.2,30.2,50,30.30,10.0,South,16.1,23.0,N/A,,Clear,170,2012-11-17 15:54:00
10:13 AM,48.2,30.2,50,30.30,10.0,South,15.0,23.0,N/A,,Clear,170,2012-11-17 16:13:00
10:33 AM,50.0,30.2,47,30.30,10.0,South,17.3,-,N/A,,Clear,170,2012-11-17 16:33:00
10:53 AM,51.8,32.0,47,30.29,10.0,South,13.8,-,N/A,,Clear,170,2012-11-17 16:53:00
11:14 AM,51.8,32.0,47,30.28,10.0,South,15.0,18.4,N/A,,Clear,170,2012-11-17 17:14:00
11:34 AM,51.8,32.0,47,30.28,10.0,South,13.8,18.4,N/A,,Clear,170,2012-11-17 17:34:00
11:54 AM,53.6,32.0,44,30.27,10.0,SSE,13.8,18.4,N/A,,Clear,160,2012-11-17 17:54:00
12:13 PM,53.6,32.0,44,30.26,10.0,SSE,15.0,18.4,N/A,,Clear,160,2012-11-17 18:13:00
12:34 PM,53.6,33.8,47,30.25,10.0,SSE,12.7,17.3,N/A,,Clear,160,2012-11-17 18:34:00
12:53 PM,55.4,33.8,44,30.25,10.0,SSE,15.0,19.6,N/A,,Clear,160,2012-11-17 18:53:00
1:14 PM,55.4,33.8,44,30.24,10.0,SSE,15.0,-,N/A,,Clear,160,2012-11-17 19:14:00
1:34 PM,55.4,33.8,44,30.23,10.0,SSE,12.7,-,N/A,,Clear,160,2012-11-17 19:34:00
1:53 PM,57.2,32.0,38,30.23,10.0,SSE,15.0,18.4,N/A,,Clear,160,2012-11-17 19:53:00
2:14 PM,57.2,30.2,36,30.22,10.0,SSE,17.3,20.7,N/A,,Clear,160,2012-11-17 20:14:00
2:34 PM,57.2,30.2,36,30.22,10.0,SSE,16.1,21.9,N/A,,Clear,150,2012-11-17 20:34:00
2:54 PM,57.2,30.2,36,30.22,10.0,SSE,18.4,23.0,N/A,,Clear,160,2012-11-17 20:54:00
3:14 PM,57.2,30.2,36,30.22,10.0,SSE,13.8,-,N/A,,Clear,160,2012-11-17 21:14:00
3:34 PM,57.2,30.2,36,30.22,10.0,SSE,13.8,20.7,N/A,,Clear,160,2012-11-17 21:34:00
3:54 PM,57.2,30.2,36,30.22,10.0,SSE,15.0,19.6,N/A,,Clear,150,2012-11-17 21:54:00
4:14 PM,57.2,30.2,36,30.22,10.0,SSE,12.7,-,N/A,,Clear,150,2012-11-17 22:14:00
4:34 PM,55.4,30.2,38,30.22,10.0,SSE,11.5,18.4,N/A,,Clear,150,2012-11-17 22:34:00
4:53 PM,55.4,30.2,38,30.21,10.0,SE,13.8,18.4,N/A,,Clear,140,2012-11-17 22:53:00
5:14 PM,55.4,30.2,38,30.21,10.0,SE,11.5,-,N/A,,Clear,140,2012-11-17 23:14:00
5:34 PM,55.4,30.2,38,30.22,10.0,SSE,17.3,-,N/A,,Mostly Cloudy,160,2012-11-17 23:34:00
5:54 PM,55.4,30.2,38,30.21,10.0,SSE,13.8,23.0,N/A,,Mostly Cloudy,150,2012-11-17 23:54:00
6:13 PM,53.6,30.2,41,30.21,10.0,SE,11.5,-,N/A,,Clear,130,2012-11-18 00:13:00
6:34 PM,53.6,32.0,44,30.20,10.0,SE,13.8,-,N/A,,Clear,140,2012-11-18 00:34:00
6:54 PM,53.6,32.0,44,30.20,10.0,SE,18.4,26.5,N/A,,Clear,140,2012-11-18 00:54:00
7:14 PM,53.6,30.2,41,30.20,10.0,SSE,18.4,21.9,N/A,,Clear,150,2012-11-18 01:14:00
7:34 PM,53.6,30.2,41,30.20,10.0,SSE,19.6,26.5,N/A,,Clear,150,2012-11-18 01:34:00
7:54 PM,53.6,30.2,41,30.20,10.0,SSE,19.6,28.8,N/A,,Clear,150,2012-11-18 01:54:00
8:13 PM,51.8,30.2,44,30.20,10.0,SSE,20.7,26.5,N/A,,Clear,150,2012-11-18 02:13:00
8:34 PM,51.8,30.2,44,30.20,10.0,SSE,20.7,24.2,N/A,,Scattered Clouds,150,2012-11-18 02:34:00
8:53 PM,51.8,30.2,44,30.21,10.0,SSE,21.9,27.6,N/A,,Mostly Cloudy,150,2012-11-18 02:53:00
9:14 PM,51.8,30.2,44,30.22,10.0,SSE,19.6,23.0,N/A,,Mostly Cloudy,160,2012-11-18 03:14:00
9:34 PM,51.8,28.4,41,30.23,10.0,SSE,17.3,27.6,N/A,,Mostly Cloudy,160,2012-11-18 03:34:00
9:54 PM,51.8,28.4,41,30.23,10.0,SSE,16.1,23.0,N/A,,Overcast,160,2012-11-18 03:54:00
10:13 PM,51.8,28.4,41,30.22,10.0,SSE,15.0,23.0,N/A,,Overcast,160,2012-11-18 04:13:00
10:34 PM,51.8,28.4,41,30.22,10.0,SSE,18.4,24.2,N/A,,Overcast,160,2012-11-18 04:34:00
10:54 PM,51.8,28.4,41,30.22,10.0,SSE,19.6,25.3,N/A,,Overcast,160,2012-11-18 04:54:00
11:14 PM,51.8,28.4,41,30.22,10.0,SSE,18.4,26.5,N/A,,Overcast,160,2012-11-18 05:14:00
11:34 PM,50.0,28.4,43,30.22,10.0,SSE,17.3,21.9,N/A,,Overcast,160,2012-11-18 05:34:00
11:54 PM,50.0,28.4,43,30.22,10.0,SSE,19.6,25.3,N/A,,Overcast,160,2012-11-18 05:54:00